Home   Weather   Mamoutzou   Past weeks

Flag for Mayotte Past Weather in Mamoutzou, Mayotte — Yesterday and Last 2 Weeks

Now
86 °F

Passing clouds.


Feels Like: 92 °F
Forecast: 76 / 81 °F
Wind: 10 mph from South

Location: Dzaoudzi / Pamanzi Mayotte

Current Time: Aug 19, 2017 at 12:26:45 pm

Latest Report: Aug 19, 2017 at 12:00 pm


Visibility: N/A

Pressure: 30.01 "Hg

Humidity: 62%

Dew Point: 72 °F

Location of MamoutzouLocation

Past Weather in Mamoutzou — Graph

°F

Mamoutzou Temperature Yesterday

Maximum temperature yesterday: 84 °F (at 10:00 am)
Minimum temperature yesterday: 73 °F (at 4:00 am)
Average temperature yesterday: 78 °F

High & Low Weather Summary for the Past Weeks

 TemperatureHumidityPressure
High86 °F (Aug 19, 10:30 am)94% (Aug 5, 2:30 am)30.09 "Hg (Aug 5, 2:30 am)
Low68 °F (Aug 7, 3:00 am)55% (Aug 6, 2:00 pm)29.92 "Hg (Aug 16, 2:30 pm)
Average78 °F73%30.02 "Hg
* Reported Aug 4 11:00 am — Aug 19 11:30 am, Mamoutzou. Weather by CustomWeather, © 2017

Note: Actual official high and low records may vary slightly from our data, if they occured in-between our weather recording intervals... More about our weather records

Advertising

Mamoutzou Weather History for the Previous 24 Hours

Scroll right to see more
 ConditionsComfort  
Time TempWeatherWind HumidityBarometerVisibility
11:30 am
Sat, Aug 19
86 °FPassing clouds.12 mph62%30.04 "HgN/A
11:00 am84 °FPassing clouds.12 mph66%30.04 "HgN/A
10:30 am86 °FPassing clouds.13 mph62%30.04 "HgN/A
10:00 am84 °FScattered clouds.12 mph70%30.07 "HgN/A
9:30 am84 °FScattered clouds.10 mph70%30.04 "HgN/A
9:00 am81 °FScattered clouds.10 mph79%30.04 "HgN/A
8:30 am81 °FPartly sunny.10 mph79%30.04 "HgN/A
8:00 am81 °FBroken clouds.13 mph79%30.04 "HgN/A
7:30 am79 °FBroken clouds.10 mph84%30.04 "HgN/A
7:00 am79 °FBroken clouds.9 mph79%30.01 "HgN/A
6:30 am77 °FBroken clouds.6 mph83%30.01 "HgN/A
6:00 am77 °FPartly cloudy.7 mph79%30.01 "HgN/A
5:30 am77 °FPassing clouds.6 mph83%30.01 "HgN/A
5:00 am77 °FPartly cloudy.3 mph83%30.01 "HgN/A
4:30 am77 °FOvercast.6 mph83%29.98 "HgN/A
4:00 am77 °FWarm.5 mph83%29.98 "HgN/A
3:30 am77 °FWarm.5 mph83%29.98 "HgN/A
3:00 am77 °FWarm.6 mph83%29.98 "HgN/A
2:30 am75 °FMild.5 mph89%29.98 "HgN/A
2:00 am73 °FMild.6 mph89%29.98 "HgN/A
1:30 am73 °FMild.1 mph89%29.98 "HgN/A
1:00 am75 °FMild.3 mph83%29.98 "HgN/A
12:30 am75 °FMild.3 mph89%30.01 "HgN/A
12:00 am75 °FMild.3 mph83%30.01 "HgN/A
11:30 pm
Fri, Aug 18
77 °FWarm.3 mph79%30.01 "HgN/A
11:00 pm77 °FWarm.8 mph83%30.01 "HgN/A
10:30 pm77 °FWarm.7 mph83%30.01 "HgN/A
10:00 pm77 °FWarm.6 mph83%30.04 "HgN/A
9:30 pm77 °FWarm.7 mph83%30.04 "HgN/A
9:00 pm77 °FWarm.7 mph83%30.04 "HgN/A
8:30 pm77 °FWarm.7 mph83%30.04 "HgN/A
8:00 pm77 °FPartly cloudy.7 mph83%30.01 "HgN/A
7:30 pm77 °FWarm.1 mph83%30.01 "HgN/A
7:00 pm77 °FWarm.1 mph83%30.01 "HgN/A
6:30 pm77 °FPassing clouds.2 mph83%30.01 "HgN/A
6:00 pm77 °FPartly cloudy.3 mph83%29.98 "HgN/A
5:30 pm77 °FScattered clouds.7 mph83%29.98 "HgN/A
5:00 pm79 °FScattered clouds.7 mph79%29.98 "HgN/A
4:30 pm79 °FScattered showers. Scattered clouds.9 mph79%29.98 "HgN/A
4:00 pm79 °FBroken clouds.12 mph79%29.98 "HgN/A
3:30 pm79 °FBroken clouds.10 mph84%29.95 "HgN/A
3:00 pm79 °FBroken clouds.5 mph79%29.95 "HgN/A
2:30 pm81 °FBroken clouds.3 mph74%29.95 "HgN/A
2:00 pm79 °FBroken clouds.5 mph79%29.98 "HgN/A
1:30 pm79 °FScattered clouds.7 mph79%29.98 "HgN/A
1:00 pm82 °FScattered showers. Scattered clouds.13 mph70%29.98 "HgN/A
12:30 pm84 °FScattered clouds.6 mph62%30.01 "HgN/A
12:00 pm84 °FScattered clouds.6 mph62%30.01 "HgN/A
Weather by CustomWeather, © 2017

See weather overviewHow to use our weather pages